Regional Weather Roundup
Issued by NWS

Home | Current Version | Previous Version | Graphics & Text | Print | Product List | Glossary On
Versions: 1 2 3 4 5 6 7 8 9 10 11 12 13 14 15 16 17 18 19 20 21 22 23 24 25 26 27 28 29 30 31 32 33 34 35 36 37 38 39 40 41 42 43 44 45 46 47 48 49 50
000
ASUS43 KOAX 302010
RWRNE
WEATHER ROUNDUP FOR NEBRASKA
NATIONAL WEATHER SERVICE OMAHA NE
300 PM CDT SAT MAY 30 2015

NOTES: SATELLITE DATA IS BEING USED TO AUGMENT CLOUD COVER ABOVE
       12000 FEET.
       "FAIR" INDICATES FEW OR NO CLOUDS BELOW 12,000 FEET WITH NO
       SIGNIFICANT WEATHER AND/OR OBSTRUCTIONS TO VISIBILITY.

  * THESE STATIONS DO NOT REPORT WEATHER SUCH AS RAIN...SNOW OR FOG.

NEZ001>004-019>022-054>056-302100-
NEBRASKA PANHANDLE

CITY           SKY/WX    TMP DP  RH WIND       PRES   REMARKS
SCOTTSBLUFF    SUNNY     66  51  58 SE16      30.21F
ALLIANCE       SUNNY     61  46  57 SE8       30.24F
CHADRON        SUNNY     65  47  52 S10       30.21F
KIMBALL          N/A    N/A N/A N/A MISG        N/A
SIDNEY         PTSUNNY   61  47  59 S7        30.27F
$$

NEZ057>060-069>072-079>082-302100-
SOUTHWEST NEBRASKA

CITY           SKY/WX    TMP DP  RH WIND       PRES   REMARKS
NORTH PLATTE   SUNNY     62  36  37 E9        30.27F
IMPERIAL       SUNNY     61  39  44 VRB5      30.27F
LEXINGTON      SUNNY     63  37  38 NE5       30.25F
MCCOOK         SUNNY     64  36  35 VRB6      30.26S
OGALLALA       SUNNY     61  40  45 E6        30.27F
$$

NEZ005>010-023>029-035>040-094-302100-
NORTH CENTRAL NEBRASKA

CITY           SKY/WX    TMP DP  RH WIND       PRES   REMARKS
VALENTINE      SUNNY     60  33  36 NE6       30.29S
AINSWORTH      SUNNY     58  36  43 NE10      30.28F
BROKEN BOW     SUNNY     64  33  31 NE9G18    30.25F
O`NEILL        SUNNY     60  43  53 N9        30.27S
ORD            SUNNY     62  37  39 NE10      30.23F
THEDFORD       SUNNY     60  32  34 NE3       30.28F
$$

NEZ041-046>049-061>064-073>077-083>087-302100-
SOUTH CENTRAL NEBRASKA

CITY           SKY/WX    TMP DP  RH WIND       PRES   REMARKS
GRAND ISLAND   SUNNY     65  41  41 N14G22    30.23F
AURORA         SUNNY     66  37  34 N10G18    30.22S
HASTINGS       SUNNY     64  46  52 N8G20     30.23S
HEBRON         CLOUDY    67  45  45 NE10G22   30.20S
HOLDREGE       SUNNY     62  41  46 N5        30.24F
KEARNEY *      SUNNY     63  43  48 NE10      30.24F
YORK           SUNNY     64  41  42 NE12G22   30.21F
$$

NEZ011>018-030>034-042>045-302100-
NORTHEAST NEBRASKA

CITY           SKY/WX    TMP DP  RH WIND       PRES   REMARKS
NORFOLK        SUNNY     65  41  41 N18G24    30.22F
ALBION         SUNNY     62  42  48 N12G18    30.24S
BLAIR          SUNNY     65  44  47 NE14      30.18S
COLUMBUS *     SUNNY     66  37  34 NE13G20   30.22F
FREMONT        SUNNY     67  42  40 N8G17     30.20S
TEKAMAH        SUNNY     69  42  37 N18G25    30.18F
WAYNE          SUNNY     63  43  48 NE15G21   30.23S
$$

NEZ050>053-065>068-078-088>093-302100-
SOUTHEAST NEBRASKA

CITY           SKY/WX    TMP DP  RH WIND       PRES   REMARKS
LINCOLN        PTSUNNY   68  44  42 N16       30.19F
OMAHA EPPLEY   PTSUNNY   66  45  46 N16G24    30.17F
BEATRICE       CLOUDY    63  46  53 NE14G20   30.18F
FALLS CITY     CLOUDY    60  51  72 N10G18    30.15F
NEBRASKA CITY  CLOUDY    61  47  58 N14       30.17F
PLATTSMOUTH    CLOUDY    63  45  52 N10       30.17F
$$

NEZ044-045-051>053-067-302100-
OMAHA AREA

CITY           SKY/WX    TMP DP  RH WIND       PRES   REMARKS
OMAHA EPPLEY   PTSUNNY   66  45  46 N16G24    30.17F
BLAIR          SUNNY     65  44  47 NE14      30.18S
FREMONT        SUNNY     67  42  40 N8G17     30.20S
MILLARD        CLOUDY    64  46  52 N7        30.18F
OFFUTT AFB     SUNNY     66  48  52 NE8G17    30.17S
PLATTSMOUTH    CLOUDY    63  45  52 N10       30.17F
WAHOO          FAIR      67  42  40 N16G23    30.19S
$$



USA.gov is the U.S. government's official web portal to all federal, state and local government web resources and services.